Regional Weather Roundup
Issued by NWS

Home | Current Version | Previous Version | Text Only | Print | Product List | Glossary Off
Versions: 1 2 3 4 5 6 7 8 9 10 11 12 13 14 15 16 17 18 19 20 21 22 23 24 25 26 27 28 29 30 31 32 33 34 35 36 37 38 39 40 41 42 43 44 45 46 47 48 49 50

000
ASUS44 KMEG 041100
RWRTN
TENNESSEE HOURLY STATE WEATHER ROUNDUP
NATIONAL WEATHER SERVICE MEMPHIS TN
600 AM CDT FRI SEP 04 2015

TNZ002-004-019-021-049-052-054-088>092-041200-
WEST TENNESSEE

CITY           SKY/WX    TMP DP  RH WIND       PRES   REMARKS
MEMPHIS INTL   CLEAR     76  71  85 CALM      29.98R
NWS MEMPHIS      N/A     71 N/A N/A MISG        N/A
JACKSON        CLEAR     69  67  93 CALM      29.99R FOG
DYERSBURG      CLEAR     70  70 100 CALM      29.99S
UNION CITY     CLEAR    N/A N/A N/A CALM      29.98S
PARIS          CLEAR     64  64 100 CALM      30.01R
LEXINGTON      MOCLDY    66  66 100 CALM      29.99R VSB 3/4
$$

TNZ008-025-027-028-033-062-065-066-041200-
NORTH MIDDLE TENNESSEE

CITY           SKY/WX    TMP DP  RH WIND       PRES   REMARKS
NASHVILLE      CLEAR     72  68  87 CALM      30.02R
CLARKSVILLE    CLEAR     66  65  96 N3        30.00S FOG
COOKEVILLE     CLEAR     64  64 100 CALM      30.03S
CROSSVILLE     CLEAR     65  62  90 CALM      30.08R FOG
$$

TNZ061-075-076-078-094-096-097-041200-
SOUTH MIDDLE TENNESSEE

CITY           SKY/WX    TMP DP  RH WIND       PRES   REMARKS
FAYETTEVILLE   CLEAR     68  66  94 CALM      30.02S
TULLAHOMA      CLEAR     66  63  88 CALM      30.04R
WINCHESTER     CLEAR     66  64  94 CALM      30.03R
COLUMBIA       CLEAR    N/A N/A N/A CALM      30.00R
SHELBYVILLE    CLEAR     70  70 100 CALM      30.03R
$$

TNZ017-018-042-046-047-041200-
NORTHEAST TENNESSEE

CITY           SKY/WX    TMP DP  RH WIND       PRES   REMARKS
TRI CITIES     PTCLDY    64  63  96 CALM      30.08R FOG
ELIZABETHTON   SUNNY     63  61  94 CALM      30.08S FOG
$$

TNZ012-013-036-069-073-074-041200-
CENTRAL EAST TENNESSEE

CITY           SKY/WX    TMP DP  RH WIND       PRES   REMARKS
KNOXVILLE      CLEAR     68  68 100 CALM      30.03R
OAK RIDGE      CLEAR     68  66  93 CALM      30.05R FOG
GATLINBURG     SUNNY     64  63  94 CALM      30.04R
$$

TNZ083-085-099-041200-
SOUTHEAST TENNESSEE

CITY           SKY/WX    TMP DP  RH WIND       PRES   REMARKS
CHATTANOOGA    PTCLDY    71  67  87 CALM      30.01R
$$

SKY/WX REPORTED AS FAIR MEANS FEW OR NO CLOUDS BELOW
12 THOUSAND FEET.




USA.gov is the U.S. government's official web portal to all federal, state and local government web resources and services.